Dewpoint
75 75 74 75 75 75 74 75 74 75 74 75 73 74 73 75 78 75 76 76 77 77 77 77 77 77 78 77 78 77 79 77 76 77 77 77 75 74 71 70 71 72
74 75 75 74 75 76 75 74 73 74 74 75 76 75 74 75 74 76 75 76 77 76 77 77 78 77 76 76 77 75 77 77 75 76 76 76 73 73 71 71 71 73
74 75 75 74 73 74 74 73 73 73 74 74 75 74 75 76 75 75 74 76 76 76 76 77 76 76 76 78 76 77 77 76 75 75 76 77 77 75 75 73 71 71
75 74 74 73 73 73 72 72 73 73 74 73 72 74 73 73 74 75 75 78 76 76 76 76 76 75 76 77 77 77 77 77 75 77 75 76 77 75 74 74 75 70
74 73 73 72 71 73 72 72 72 71 71 73 72 72 74 75 74 74 75 76 75 76 76 76 76 75 75 77 77 75 75 77 77 76 75 75 75 75 73 74 74 71
73 73 72 72 72 72 71 71 72 71 70 72 71 72 73 73 72 73 73 74 74 74 75 75 76 75 76 76 77 74 74 76 75 75 75 75 75 74 73 74 73 74
71 72 71 71 71 71 70 70 71 72 69 70 72 72 70 71 72 72 72 73 72 73 73 74 75 74 75 76 75 75 75 76 76 75 75 75 76 74 74 74 74 75
70 71 70 71 70 70 70 70 70 70 70 70 70 71 70 71 73 70 71 73 71 73 72 73 74 75 75 76 75 75 76 75 75 75 75 75 75 75 75 75 76 74
70 71 70 69 69 69 69 69 69 69 69 69 69 69 70 70 71 70 70 71 70 72 73 72 74 74 75 75 75 75 75 74 73 75 75 75 74 74 75 75 73 74
70 71 69 69 68 67 67 66 66 67 69 68 67 66 68 70 69 69 71 72 71 73 73 72 73 73 75 74 74 75 75 75 75 74 73 74 73 73 72 72 72 72
70 70 69 69 69 68 65 65 64 65 67 66 66 66 65 68 70 70 72 74 71 73 73 74 74 74 75 74 74 75 75 75 75 75 74 74 74 74 76 74 73 72
69 69 69 69 69 70 70 66 63 63 64 66 65 65 66 66 68 67 68 74 72 72 73 74 75 75 75 74 73 73 74 74 74 74 74 74 74 74 73 73 73 73
68 67 68 69 70 70 70 68 67 67 66 64 65 64 64 64 68 68 68 72 72 73 73 74 74 73 74 75 74 73 73 73 73 73 73 74 74 73 72 72 72 71
68 67 68 68 70 71 71 70 71 71 71 71 71 69 63 63 63 67 68 70 73 73 73 73 74 74 74 75 75 73 73 74 73 73 74 73 73 73 72 71 72 71
72 72 72 72 74 72 72 72 71 72 72 73 75 74 73 72 70 65 66 68 72 72 73 72 72 72 72 73 73 74 73 72 73 72 73 73 73 74 72 70 71 71
71 70 71 72 74 74 73 73 73 74 75 76 75 75 75 75 74 72 68 67 67 70 72 70 68 70 73 71 71 74 73 72 72 73 73 73 74 74 73 72 72 74
70 71 70 69 70 70 74 76 76 75 75 74 74 75 75 74 73 73 70 68 68 68 68 69 68 67 66 66 67 71 75 73 74 74 74 75 73 73 73 72 70 70
70 71 71 70 72 71 72 73 75 75 74 74 74 74 74 73 73 73 70 69 69 68 68 68 66 64 63 64 66 67 72 76 74 74 74 74 74 72 71 71 70 70
71 71 71 71 72 73 72 73 74 74 74 73 73 72 75 74 73 73 70 70 71 70 69 67 65 62 63 63 64 65 68 75 74 74 71 70 70 70 71 72 72 72
72 71 71 71 72 72 73 73 72 72 73 73 73 73 72 73 74 74 73 72 72 72 70 67 64 61 61 62 62 63 65 71 74 73 73 72 71 71 72 73 72 72
70 71 70 70 71 71 72 72 72 72 71 72 72 72 72 72 73 74 73 73 73 72 68 63 60 59 59 60 61 62 63 72 74 74 73 73 73 72 72 73 72 74
69 69 68 69 69 70 70 70 70 70 70 71 71 72 71 72 74 73 72 71 72 72 68 63 61 56 57 58 59 60 64 74 75 74 73 73 73 73 73 73 72 72
69 69 68 68 68 68 68 69 69 69 70 70 69 70 71 72 72 72 72 71 72 71 66 63 61 57 55 55 56 58 67 74 74 74 73 73 73 73 72 72 73 73
68 68 68 68 67 68 68 69 69 69 70 69 69 69 69 70 71 72 72 71 71 68 63 61 60 58 54 53 54 56 65 71 74 74 73 73 72 72 73 71 70 73
66 67 68 67 67 67 68 68 68 69 70 70 70 70 69 69 71 71 71 70 70 67 66 61 61 59 54 53 53 55 65 70 74 73 72 72 72 72 72 67 63 65
62 63 64 65 66 67 68 68 69 69 70 69 68 67 67 68 69 68 69 70 68 65 62 61 60 59 58 52 53 55 61 69 69 71 70 70 70 71 72 68 63 62